Content
SEND FEEDBACK

Daily
Averages
Monthly
Summary
United States of America

ANN ARBOR, MICHIGAN


Home > North America > United States > Michigan
Elevation: 759 feet     Latitude: 42 17N     Longitude: 083 43W

WEATHER
 
SELECT A DAY
Number of Records: 207,125;   Date Range: 1/1/95 - 10/24/14
 
SHARE

PRINT THIS DATA

[ ← Previous Day ]
WEATHER ALMANAC - APRIL 26, 2013
[ Next Day → ]
[ °C ]   °F
Weather ElementAverageHighLow
Temperature44.8 °F57.9 °F (3:53 pm)27 °F (6:53 am)
Dewpoint32.1 °F37 °F (7:53 pm)27 °F (2:53 am)
Humidity65.4 %100 % (6:53 am)39 % (3:53 pm)
Barometer30.41 in30.48 in (9:53 am)30.36 in (5:53 pm)
Wind Speed6.2 mph15 mph (5:53 pm)
Wind Gust19.6 mph (1:53 pm)
Weather ElementAverage
Visibility9.3 mi
Wind DirectionESE (112.6 °)

Weather ElementTotal
Precipitation---
Heating Degree Days22.6 (Base 65)
Averaged from 23 records on April 26, 2013
WEATHER CONDITIONS BREAKOUT
WIND DIRECTION BREAKOUT
WEATHER BY HOUR - APRIL 26, 2013
[ °C ]   °F
Local TimeTemperatureDewpointHumidityBarometerVisibilityWind DirectionWind SpeedGust SpeedPrecipitationEventsConditions
1:53 AM30.0 °F28.0 °F92 %30.40 in10.0 miCalmClear
2:53 AM28.9 °F27.0 °F92 %30.39 in9.0 miCalmClear
3:53 AM28.9 °F27.0 °F92 %30.39 in10.0 miCalmClear
4:53 AM28.0 °F27.0 °F96 %30.40 in5.0 miCalmClear
5:53 AM28.0 °F27.0 °F96 %30.42 in7.0 miCalmClear
6:53 AM27.0 °F27.0 °F100 %30.43 in6.0 miCalmClear
7:53 AM32.0 °F30.9 °F96 %30.44 in7.0 miCalmClear
8:53 AM42.1 °F34.0 °F73 %30.45 in10.0 miCalmClear
9:53 AM46.9 °F32.0 °F56 %30.48 in10.0 miSouth (180°)8.1 mphClear
10:53 AM48.9 °F32.0 °F52 %30.48 in10.0 miSSW (210°)9.2 mphClear
11:53 AM51.1 °F30.9 °F46 %30.47 in10.0 miSSW (210°)10.4 mphClear
12:53 PM53.1 °F33.1 °F47 %30.46 in10.0 miSSW (210°)10.4 mphClear
1:53 PM55.0 °F33.1 °F43 %30.43 in10.0 miSouth (180°)13.8 mph19.6 mphClear
2:53 PM57.0 °F33.1 °F40 %30.42 in10.0 miSSW (200°)13.8 mphClear
3:53 PM57.9 °F33.1 °F39 %30.40 in10.0 miSouth (190°)12.7 mph19.6 mphClear
4:53 PM57.9 °F33.1 °F39 %30.37 in10.0 miSSW (210°)13.8 mphClear
5:53 PM57.9 °F33.1 °F39 %30.36 in10.0 miSouth (190°)15.0 mphClear
6:53 PM57.9 °F33.1 °F39 %30.37 in10.0 miSouth (180°)10.4 mphClear
7:53 PM55.0 °F37.0 °F51 %30.36 in10.0 miSSE (160°)6.9 mphClear
8:53 PM50.0 °F37.0 °F61 %30.37 in10.0 miSSE (150°)6.9 mphClear
9:53 PM46.9 °F36.0 °F66 %30.38 in10.0 miSSE (160°)4.6 mphClear
10:53 PM45.0 °F37.0 °F74 %30.38 in10.0 miSSE (160°)6.9 mphClear
11:53 PM44.1 °F37.0 °F76 %30.38 in10.0 miCalmClear
Hourly data recorded from KARB, located miles away from Ann Arbor, Michigan







STORIES FROM OUR PARTNERS